TimeCDT,TemperatureF,Dew PointF,Humidity,Sea Level PressureIn,VisibilityMPH,Wind Direction,Wind SpeedMPH,Gust SpeedMPH,PrecipitationIn,Events,Conditions,WindDirDegrees,DateUTC
12:56 AM,63.0,60.1,90,29.96,10.0,Calm,Calm,-,N/A,,Clear,0,2013-04-29 05:56:00
1:56 AM,63.0,60.1,90,29.96,10.0,NW,5.8,-,N/A,,Clear,320,2013-04-29 06:56:00
2:56 AM,62.1,60.1,93,29.96,10.0,Calm,Calm,-,N/A,,Mostly Cloudy,0,2013-04-29 07:56:00
3:56 AM,62.1,60.1,93,29.96,10.0,Calm,Calm,-,N/A,,Mostly Cloudy,0,2013-04-29 08:56:00
4:56 AM,63.0,60.1,90,29.97,10.0,NNW,4.6,-,N/A,,Overcast,340,2013-04-29 09:56:00
5:56 AM,62.1,60.1,93,29.97,10.0,North,3.5,-,N/A,,Overcast,10,2013-04-29 10:56:00
6:56 AM,62.1,60.1,93,29.98,6.0,North,5.8,-,N/A,,Overcast,360,2013-04-29 11:56:00
7:09 AM,62.6,60.8,94,29.99,6.0,NNE,3.5,-,N/A,,Overcast,20,2013-04-29 12:09:00
7:56 AM,64.9,61.0,87,30.00,10.0,NE,3.5,-,N/A,,Overcast,40,2013-04-29 12:56:00
8:56 AM,68.0,60.1,76,30.01,10.0,Calm,Calm,-,N/A,,Overcast,0,2013-04-29 13:56:00
9:56 AM,72.0,60.1,66,30.01,10.0,Calm,Calm,-,N/A,,Scattered Clouds,0,2013-04-29 14:56:00
10:56 AM,75.0,60.1,60,30.01,10.0,Calm,Calm,-,N/A,,Mostly Cloudy,0,2013-04-29 15:56:00
11:56 AM,78.1,57.0,48,29.99,10.0,North,9.2,-,N/A,,Partly Cloudy,360,2013-04-29 16:56:00
12:56 PM,77.0,55.0,47,29.98,10.0,Calm,Calm,-,N/A,,Partly Cloudy,0,2013-04-29 17:56:00
1:56 PM,80.1,55.9,43,29.96,10.0,West,6.9,-,N/A,,Scattered Clouds,260,2013-04-29 18:56:00
2:56 PM,79.0,55.0,44,29.94,10.0,Variable,5.8,-,N/A,,Mostly Cloudy,0,2013-04-29 19:56:00
3:56 PM,81.0,54.0,39,29.91,10.0,Variable,4.6,-,N/A,,Mostly Cloudy,0,2013-04-29 20:56:00
4:56 PM,80.1,54.0,40,29.91,10.0,North,5.8,-,N/A,,Clear,10,2013-04-29 21:56:00
5:56 PM,80.1,53.1,39,29.91,10.0,Calm,Calm,-,N/A,,Clear,0,2013-04-29 22:56:00
6:56 PM,75.9,55.9,50,29.91,10.0,Calm,Calm,-,N/A,,Clear,0,2013-04-29 23:56:00
7:56 PM,70.0,61.0,73,29.92,10.0,Calm,Calm,-,N/A,,Clear,0,2013-04-30 00:56:00
8:56 PM,68.0,60.1,76,29.94,10.0,SSE,3.5,-,N/A,,Mostly Cloudy,150,2013-04-30 01:56:00
9:56 PM,64.0,60.1,87,29.95,10.0,Calm,Calm,-,N/A,,Clear,0,2013-04-30 02:56:00
10:56 PM,63.0,59.0,87,29.95,10.0,Calm,Calm,-,N/A,,Clear,0,2013-04-30 03:56:00
11:56 PM,61.0,57.9,90,29.94,10.0,Calm,Calm,-,N/A,,Clear,0,2013-04-30 04:56:00